Fosston, MN

2:58 AM CDT on May 29, 2017 (GMT -0500)
Fosston Municipal

Weather History for KFSE - February, 2013

Change the Weather History Date:

Tuesday, February 19, 2013

  Actual Average Record
Temperature  
Mean Temperature -11 °F -  
Max Temperature 1 °F 22 °F 48 °F (2017)
Min Temperature -23 °F 3 °F -32 °F (2015)
Degree Days  
Heating Degree Days 76    
Moisture  
Dew Point -17 °F    
Average Humidity 71    
Maximum Humidity 85    
Minimum Humidity 51    
Precipitation  
Precipitation 0.00 in - - ()
Sea Level Pressure  
Sea Level Pressure 30.25 in    
Wind  
Wind Speed 15 mph (NNW)    
Max Wind Speed 22 mph    
Max Gust Speed 29 mph    
Visibility 8 miles    
Events Snow    
Averages and records for this station are not official NWS values.
T = Trace of Precipitation, MM = Missing Value Source: NWS Daily Summary

Daily Weather History Graph

Daily Weather History Graph

Search for Another Location

Airport or City:

Trip Planner

Search our weather history database for the weather conditions in past years. The results will help you decide how hot, cold, wet, or windy it might be!

Date:

Astronomy

Feb. 19, 2013 Rise Set
Actual Time 7:21 AM CST 5:53 PM CST
Civil Twilight 6:49 AM CST 6:24 PM CST
Nautical Twilight 6:14 AM CST 7:00 PM CST
Astronomical Twilight 5:38 AM CST 7:36 PM CST
Moon 12:12 PM CST (2/19) 3:07 AM CST (2/19)
Length of Visible Light 11h 34m
Length of Day
10h 31m
Waxing Gibbous, 67% of the Moon is Illuminated
Feb 19
Waxing Gibbous
Feb 25
Full
Mar 4
Last Quarter
Mar 11
New
Mar 19
First Quarter

Hourly Weather History & Observations

Time (CST) Temp. Windchill Dew Point Humidity Pressure Visibility Wind Dir Wind Speed Gust Speed Precip Events Conditions
12:15 AM -4.0 °F -24.5 °F -7.6 °F 85% 30.02 in 10.0 mi NW 15.0 mph - N/A   Overcast
12:35 AM -2.2 °F -23.5 °F -7.6 °F 78% 30.03 in 10.0 mi NNW 17.3 mph - N/A   Overcast
12:55 AM -2.2 °F -23.5 °F -7.6 °F 78% 30.03 in 7.0 mi NNW 17.3 mph - N/A   Overcast
1:15 AM -2.2 °F -22.9 °F -7.6 °F 78% 30.04 in 5.0 mi NW 16.1 mph - N/A   Overcast
1:35 AM -2.2 °F -24.1 °F -7.6 °F 78% 30.04 in 3.0 mi NW 18.4 mph - N/A Snow Light Snow
1:55 AM -4.0 °F -26.4 °F -7.6 °F 85% 30.05 in 2.5 mi NW 18.4 mph - N/A   Overcast
2:15 AM -4.0 °F -26.4 °F -7.6 °F 85% 30.06 in 3.0 mi NW 18.4 mph 25.3 mph N/A   Overcast
2:35 AM -4.0 °F -27.6 °F -9.4 °F 78% 30.06 in 2.5 mi NNW 20.7 mph 28.8 mph N/A   Haze
2:55 AM -5.8 °F -30.5 °F -11.2 °F 77% 30.07 in 2.5 mi NNW 21.9 mph 26.5 mph N/A   Haze
3:15 AM -7.6 °F -32.3 °F -11.2 °F 84% 30.07 in 4.0 mi NW 20.7 mph 26.5 mph N/A   Haze
3:35 AM -7.6 °F -31.1 °F -11.2 °F 84% 30.08 in 4.0 mi NW 18.4 mph - N/A   Haze
3:55 AM -7.6 °F -31.1 °F -11.2 °F 84% 30.09 in 4.0 mi NNW 18.4 mph - N/A   Overcast
4:15 AM -7.6 °F -31.7 °F -13.0 °F 77% 30.09 in 5.0 mi NNW 19.6 mph - N/A   Haze
4:35 AM -7.6 °F -30.5 °F -13.0 °F 77% 30.10 in 5.0 mi NNW 17.3 mph 26.5 mph N/A   Haze
4:55 AM -7.6 °F -29.8 °F -13.0 °F 77% 30.10 in 5.0 mi NNW 16.1 mph - N/A   Haze
5:15 AM -9.4 °F -34.1 °F -14.8 °F 77% 30.11 in 5.0 mi NNW 19.6 mph 27.6 mph N/A   Haze
5:35 AM -9.4 °F -34.1 °F -14.8 °F 77% 30.12 in 5.0 mi NNW 19.6 mph 27.6 mph N/A   Haze
5:55 AM -9.4 °F -34.1 °F -14.8 °F 77% 30.13 in 4.0 mi NW 19.6 mph 23.0 mph N/A   Haze
6:15 AM -11.2 °F -37.0 °F -16.6 °F 77% 30.14 in 5.0 mi NNW 20.7 mph 25.3 mph N/A   Haze
6:35 AM -11.2 °F -35.2 °F -18.4 °F 70% 30.15 in 7.0 mi NNW 17.3 mph - N/A   Scattered Clouds
6:55 AM -14.8 °F -38.3 °F -18.4 °F 84% 30.16 in 10.0 mi NW 15.0 mph 21.9 mph N/A   Clear
7:15 AM -14.8 °F -39.1 °F -18.4 °F 84% 30.17 in 10.0 mi NNW 16.1 mph - N/A   Clear
7:35 AM -14.8 °F -39.8 °F -20.2 °F 77% 30.18 in 10.0 mi NNW 17.3 mph - N/A   Clear
8:15 AM -14.8 °F -39.1 °F -20.2 °F 77% 30.20 in 5.0 mi NNW 16.1 mph - N/A   Haze
8:35 AM -13.0 °F -36.8 °F -20.2 °F 70% 30.21 in 7.0 mi NNW 16.1 mph - N/A   Clear
8:55 AM -11.2 °F -35.2 °F -20.2 °F 64% 30.22 in 7.0 mi NNW 17.3 mph - N/A   Clear
9:15 AM -11.2 °F -35.2 °F -20.2 °F 64% 30.23 in 7.0 mi NNW 17.3 mph - N/A   Clear
9:35 AM -11.2 °F -35.8 °F -20.2 °F 64% 30.24 in 7.0 mi NNW 18.4 mph - N/A   Clear
9:55 AM -9.4 °F -33.5 °F -18.4 °F 65% 30.24 in 5.0 mi NNW 18.4 mph - N/A   Haze
10:15 AM -9.4 °F -33.5 °F -18.4 °F 65% 30.25 in 5.0 mi NNW 18.4 mph - N/A   Haze
10:35 AM -9.4 °F -33.5 °F -18.4 °F 65% 30.25 in 5.0 mi NNW 18.4 mph - N/A   Haze
10:55 AM -7.6 °F -31.7 °F -18.4 °F 59% 30.27 in 5.0 mi NNW 19.6 mph - N/A   Haze
11:15 AM -7.6 °F -31.7 °F -18.4 °F 59% 30.27 in 4.0 mi NNW 19.6 mph - N/A   Haze
11:35 AM -7.6 °F -30.5 °F -18.4 °F 59% 30.28 in 7.0 mi NNW 17.3 mph 24.2 mph N/A   Clear
11:55 AM -5.8 °F -27.5 °F -16.6 °F 60% 30.28 in 7.0 mi NNW 16.1 mph - N/A   Clear
12:15 PM -5.8 °F -28.2 °F -16.6 °F 60% 30.29 in 10.0 mi NNW 17.3 mph - N/A   Clear
12:35 PM -5.8 °F -28.2 °F -16.6 °F 60% 30.29 in 10.0 mi NNW 17.3 mph - N/A   Clear
12:55 PM -4.0 °F -25.8 °F -14.8 °F 60% 30.29 in 10.0 mi NNW 17.3 mph 21.9 mph N/A   Clear
1:15 PM -2.2 °F -22.9 °F -14.8 °F 55% 30.29 in 10.0 mi NNW 16.1 mph - N/A   Clear
1:35 PM -2.2 °F -23.5 °F -14.8 °F 55% 30.29 in 10.0 mi NNW 17.3 mph - N/A   Clear
1:55 PM -0.4 °F -20.5 °F -14.8 °F 51% 30.29 in 10.0 mi NNW 16.1 mph - N/A   Clear
2:15 PM -0.4 °F -19.9 °F -13.0 °F 55% 30.29 in 10.0 mi NNW 15.0 mph - N/A   Clear
2:35 PM -0.4 °F -20.5 °F -13.0 °F 55% 30.29 in 10.0 mi NNW 16.1 mph 20.7 mph N/A   Clear
2:55 PM -0.4 °F -17.6 °F -13.0 °F 55% 30.31 in 10.0 mi NNW 11.5 mph - N/A   Clear
3:15 PM 1.4 °F -16.9 °F -13.0 °F 51% 30.31 in 10.0 mi NNW 13.8 mph 17.3 mph N/A   Clear
3:35 PM 1.4 °F -15.3 °F -11.2 °F 56% 30.32 in 10.0 mi NW 11.5 mph - N/A   Clear
3:55 PM 1.4 °F -14.5 °F -11.2 °F 56% 30.33 in 10.0 mi NNW 10.4 mph - N/A   Clear
4:15 PM -0.4 °F -16.7 °F -11.2 °F 60% 30.33 in 10.0 mi NW 10.4 mph - N/A   Clear
4:35 PM -0.4 °F -17.6 °F -13.0 °F 55% 30.34 in 10.0 mi NW 11.5 mph - N/A   Clear
4:55 PM -2.2 °F -18.0 °F -13.0 °F 60% 30.34 in 10.0 mi NW 9.2 mph - N/A   Clear
5:15 PM -4.0 °F -21.2 °F -14.8 °F 60% 30.35 in 10.0 mi NW 10.4 mph - N/A   Clear
6:35 PM -13.0 °F -27.0 °F -18.4 °F 77% 30.37 in 10.0 mi WNW 5.8 mph - N/A   Clear
6:55 PM -14.8 °F -29.1 °F -18.4 °F 84% 30.38 in 10.0 mi NW 5.8 mph - N/A   Clear
7:15 PM -14.8 °F - -20.2 °F 77% 30.38 in 10.0 mi Calm Calm - N/A   Clear
7:35 PM -16.6 °F -32.9 °F -20.2 °F 84% 30.39 in 10.0 mi NW 6.9 mph - N/A   Clear
7:55 PM -16.6 °F -32.9 °F -20.2 °F 84% 30.39 in 10.0 mi NNW 6.9 mph - N/A   Clear
8:15 PM -18.4 °F -35.1 °F -23.8 °F 76% 30.39 in 10.0 mi NNW 6.9 mph - N/A   Clear
8:35 PM -18.4 °F - -23.8 °F 76% 30.39 in 10.0 mi Calm Calm - N/A   Clear
8:55 PM -18.4 °F - -23.8 °F 76% 30.40 in 10.0 mi Calm Calm - N/A   Clear
9:15 PM -18.4 °F -31.4 °F -23.8 °F 76% 30.40 in 10.0 mi North 4.6 mph - N/A   Clear
9:35 PM -20.2 °F -35.5 °F -25.6 °F 76% 30.40 in 10.0 mi North 5.8 mph - N/A   Clear
9:55 PM -20.2 °F -33.5 °F -27.4 °F 69% 30.40 in 10.0 mi NNE 4.6 mph - N/A   Clear
10:15 PM -20.2 °F -33.5 °F -25.6 °F 76% 30.40 in 10.0 mi NNE 4.6 mph - N/A   Clear
10:35 PM -18.4 °F -28.9 °F -25.6 °F 70% 30.40 in 10.0 mi NNE 3.5 mph - N/A   Clear
10:55 PM -18.4 °F - -25.6 °F 70% 30.41 in 10.0 mi Calm Calm - N/A   Clear
11:15 PM -18.4 °F - -25.6 °F 70% 30.41 in 10.0 mi Calm Calm - N/A   Clear
11:35 PM -23.8 °F - -27.4 °F 83% 30.42 in 10.0 mi Calm Calm - N/A   Clear
11:55 PM -22.0 °F - -27.4 °F 76% 30.43 in 10.0 mi Calm Calm - N/A   Clear